Regional Weather Roundup
Issued by NWS

Home | Current Version | Previous Version | Text Only | Print | Product List | Glossary Off
Versions: 1 2 3 4 5 6 7 8 9 10 11 12 13 14 15 16 17 18 19 20 21 22 23 24 25 26 27 28 29 30 31 32 33 34 35 36 37 38 39 40 41 42 43 44 45 46 47 48 49 50

829
ASUS43 KMKX 271121
RWRWI

WISCONSIN REGIONAL WEATHER ROUNDUP
NATIONAL WEATHER SERVICE MILWAUKEE/SULLIVAN WI
600 AM CDT SUN MAY 27 2018

NOTE: "FAIR" INDICATES FEW OR NO CLOUDS BELOW 12,000 FEET WITH NO
SIGNIFICANT WEATHER AND/OR OBSTRUCTIONS TO VISIBILITY.

WIZ001-002-006>008-014>016-023>028-271200-
NORTHWEST WISCONSIN

CITY           SKY/WX    TMP DP  RH WIND       PRES   REMARKS
SUPERIOR ARPT  FAIR      47  47 100 CALM      29.81R FOG
ASHLAND        FOG       49  49 100 CALM      29.82R VSB<1/4
HAYWARD        FAIR      53  51  93 NE3       29.82R
SIREN            N/A     53  50  90 CALM      29.81R
CUMBERLAND     FAIR      55  54  94 CALM      29.82R FOG
RICE LAKE      FAIR      57  56  97 CALM      29.83R
CHETEK         FAIR      56  56 100 CALM      29.82S FOG
LADYSMITH      FAIR      56  55  97 CALM      29.84S
EAU CLAIRE     FAIR      58  58 100 CALM      29.79R FOG
MENOMONIE      FAIR      61  60  96 CALM      29.81R
NEW RICHMOND   FAIR      60  59  94 CALM      29.80S
OSCEOLA        FAIR      57  55  93 CALM      29.83R
$$

WIZ003>005-009-010-017-018-271200-
NORTH CENTRAL WISCONSIN

CITY           SKY/WX    TMP DP  RH WIND       PRES   REMARKS
MANITOWISH WTR FOG       52  52 100 CALM      29.83R VSB 1/2
ARBOR VITAE    FAIR      57  56  95 CALM      29.83R
WOODRUFF       FAIR      57  56  95 CALM      29.83R
RHINELANDER    FAIR      58  56  93 W6        29.84R FOG
EAGLE RIVER    FOG       53  53 100 CALM      29.83R VSB 3/4
LAND O LAKES   FOG       52  52 100 CALM      29.85R VSB 1/2
PHILLIPS       FAIR      54  54 100 CALM      29.83S
TOMAHAWK       FAIR      49  49  97 CALM      29.84R
MEDFORD        FAIR      56  55  97 NE3       29.83R
MERRILL        FAIR      53  53 100 CALM      29.84S FOG
$$

WIZ029-030-035-036-043>047-271200-
CENTRAL WISCONSIN

CITY           SKY/WX    TMP DP  RH WIND       PRES   REMARKS
WAUSAU         NOT AVBL
MOSINEE        CLEAR     64  63  94 NW3       29.83R
MARSHFIELD     FAIR      65  62  90 NW5       29.82R
STEVENS POINT  FAIR      58  58 100 CALM      29.83R
WAUPACA        FAIR      67  64  90 CALM      29.81R
WAUTOMA        FAIR      62  60  93 CALM      29.82R
WISC RAPIDS    FAIR      62  61  96 CALM      29.83R
CAMP DOUGLAS   FAIR      62  62 100 N3        29.82R
$$

WIZ011>013-019>022-031-037>040-048>050-271200-
NORTHEAST WISCONSIN

CITY           SKY/WX    TMP DP  RH WIND       PRES   REMARKS
ANTIGO         FOG       52  52 100 CALM      29.84R VSB<1/4
SHAWANO        FAIR      62  59  92 CALM      29.80R
OCONTO         FAIR      56  55  96 CALM      29.78R
STURGEON BAY   FAIR      61  57  87 NW5       29.79R
GREEN BAY      FAIR      63  59  87 SW3       29.79R
MANITOWOC      NOT AVBL
APPLETON       PTCLDY    70  61  73 SW5       29.79S
CLINTONVILLE   FAIR      61  60  97 CALM      29.80R
OSHKOSH        FAIR      68  63  84 CALM      29.81R
$$

WIZ032>034-041-042-053>061-271200-
SOUTHWEST WISCONSIN

CITY           SKY/WX    TMP DP  RH WIND       PRES   REMARKS
LA CROSSE      FAIR      68  65  90 SE5       29.80R
SPARTA         FAIR      56  56  98 CALM      29.83R
VIROQUA        FAIR      69  66  88 S5        29.84R
BOSCOBEL       FAIR      66  64  93 CALM      29.82S
PRAIRIE DU CHI FAIR      66  64  94 E5        29.81S
PLATTEVILLE    FAIR      68  67  96 SE6       29.84R
$$

WIZ056-057-062-063-064-067-068-271200-
SOUTH CENTRAL WISCONSIN

CITY           SKY/WX    TMP DP  RH WIND       PRES   REMARKS
REEDSBURG      FAIR      64  64 100 CALM      29.83R
BARABOO/DELLS  FAIR      70  61  74 SW3       29.82S
LONE ROCK      MOCLDY    65  65 100 CALM      29.82R
MINERAL POINT  FAIR      72  66  83 CALM      29.85R
MADISON        FAIR      66  62  87 CALM      29.82R
MIDDLETON      FAIR      71  62  72 CALM      29.84R
WATERTOWN      FAIR      63  63 100 CALM      29.84R
MONROE         FAIR      70  61  73 SW8       29.84R
JANESVILLE     CLEAR     64  64 100 CALM      29.84R
$$

WIZ051-052-058>065-066-070>072-271200-
SOUTHEAST WISCONSIN

CITY           SKY/WX    TMP DP  RH WIND       PRES   REMARKS
MILWAUKEE      FAIR      72  63  73 SW3       29.83R
WAUKESHA       CLEAR     63  61  94 CALM      29.85R
MILWAUKEE/TIMM FAIR      64  57  77 CALM      29.84R
RACINE         FAIR      71  62  73 W3        29.85R
BURLINGTON     FAIR      61  60  96 CALM      29.85R
KENOSHA        FAIR      66  61  84 W3        29.84R
FOND DU LAC    FAIR      71  62  73 SW8       29.82R
SHEBOYGAN      FAIR      62  59  90 W3        29.81R
WEST BEND      FAIR      61  61 100 CALM      29.83R FOG
JUNEAU         MOCLDY    65  62  88 CALM      29.85R
$$

LSZ147-162-271200-
LAKE SUPERIOR

STATION/POSITION TIME  TEMP    WIND        PRES    WAVE
                       AIR SEA DIR/SP/G            HT/PER
                 (UTC) (F)     (DEG/KT/KT) (MB)    (FT/S)
W MID LAKE BUOY  1050   37 36  260/  6/  8 1010.2R   1
DEVILS ISLAND    1100   46     240/  4/  5 1009.9R
SAXON HARBOR     1040   49     200/  3/  5 1009.1R
$$

LMZ867-665-643>646-271200-
LAKE MICHIGAN

STATION/POSITION TIME  TEMP    WIND        PRES    WAVE
                       AIR SEA DIR/SP/G            HT/PER
                 (UTC) (F)     (DEG/KT/KT) (MB)    (FT/S)
N MID LAKE BUOY  1100   45 38  180/ 12/ 14 1008.6
NORTHPORT PIER   1040   53     180/  3/  4 1008.5S
KEWAUNEE LAKESHO 1054   55      CALM  /  2 1007.9R
SHEBOYGAN LAKESH 1100   60     190/  6/  6 1009.1R
PORT WASHINGTON  1030   59     170/  3/  3 1010.5R
ATWATER BUOY     1037   57 50  140/  6/  6 1010.2R   0
MILWAUKEE LAKESH 1100   69     270/  2/  4   N/A
S MID LAKE BUOY  1050   54 40  180/  8/  8 1010.4R   0
KENOSHA   LAKESH 1100   70                 1010.2
$$

TC  - TEMPERATURE IN CELSIUS
VSB - VISIBILITY IN STATUTE MILES
WCI - WIND CHILL INDEX
HX  - HEAT INDEX





USA.gov is the U.S. government's official web portal to all federal, state and local government web resources and services.